Location: Unspecified
(0.0000°N, 0.0000°E)
Time: 10:44:24
(UTC+00:00)

Vanguard 3 - Pass Details

Date: 09 October 2022
Orbit: 509 x 3255 km, 33.3° (Epoch: 29 November)

Event Time Altitude Azimuth Distance (km) Brightness Sun altitude
Exits shadow 04:13:45 13° 355° (N) 1,927 8.9 -23.3°
Drops below altitude 10° 04:14:29 10° 3° (N) 2,064 9.2 -23.1°
Sets 04:17:01 0° 24° (NNE) 2,776 10.1 -22.4°
